| time (UTC) | temp C | wind direction | speed KPH | gust KPH | rain 1hr cm | rain 24hr cm | rain mn cm | humidity % | barometer mb |
| 20260903143102 | 22 | 45 | 8.0 | 14.5 | 0.00 | 1.04 | 0.00 | 89 | 1012.1 |
| 20260903141550 | 22 | 30 | 6.4 | 14.5 | 0.00 | 1.04 | 0.00 | 93 | 1012.0 |
| 20260903140046 | 21 | 74 | 6.4 | 16.1 | 0.00 | 1.04 | 0.00 | 94 | 1012.0 |
| 20260903134551 | 21 | 85 | 4.8 | 8.0 | 0.00 | 1.04 | 0.00 | 95 | 1012.1 |
| 20260903133043 | 20 | 92 | 3.2 | 9.7 | 0.00 | 1.04 | 0.00 | 95 | 1012.2 |
| 20260903131549 | 20 | 80 | 3.2 | 6.4 | 0.00 | 1.04 | 0.00 | 94 | 1012.3 |
| 20260903130041 | 20 | 55 | 1.6 | 4.8 | 0.00 | 1.04 | 0.00 | 95 | 1012.5 |
| 20260903124539 | 20 | 55 | 3.2 | 8.0 | 0.00 | 1.04 | 0.00 | 94 | 1012.4 |
| 20260903123037 | 19 | 23 | 4.8 | 6.4 | 0.00 | 1.04 | 0.00 | 94 | 1012.4 |
| 20260903121536 | 19 | 27 | 6.4 | 9.7 | 0.00 | 1.04 | 0.00 | 94 | 1012.4 |
| 20260903120036 | 18 | 32 | 3.2 | 4.8 | 0.00 | 1.04 | 0.00 | 94 | 1012.2 |
| 20260903114533 | 18 | 32 | 3.2 | 6.4 | 0.00 | 1.04 | 0.00 | 94 | 1012.1 |
| 20260903113030 | 18 | 32 | 3.2 | 4.8 | 0.00 | 1.04 | 0.00 | 94 | 1012.0 |
| 20260903111526 | 18 | 32 | 3.2 | 4.8 | 0.00 | 1.04 | 0.00 | 94 | 1011.8 |
| 20260903110024 | 18 | 32 | 1.6 | 4.8 | 0.00 | 1.04 | 0.00 | 94 | 1011.6 |
| 20260903104524 | 18 | 32 | 3.2 | 8.0 | 0.00 | 1.04 | 0.00 | 94 | 1011.5 |
| 20260903103023 | 18 | 33 | 6.4 | 9.7 | 0.00 | 1.04 | 0.00 | 94 | 1011.7 |
| 20260903101521 | 18 | 5 | 1.6 | 3.2 | 0.00 | 1.04 | 0.00 | 94 | 1011.5 |
| 20260903100019 | 18 | 5 | 1.6 | 4.8 | 0.00 | 1.04 | 0.00 | 94 | 1011.4 |
| 20260903094518 | 19 | 5 | 1.6 | 8.0 | 0.00 | 1.04 | 0.00 | 94 | 1011.3 |
| 20260903093025 | 20 | 360 | 6.4 | 9.7 | 0.00 | 1.04 | 0.00 | 94 | 1011.3 |
| 20260903091517 | 18 | 19 | 1.6 | 3.2 | 0.00 | 1.04 | 0.00 | 94 | 1011.1 |
| 20260903090015 | 18 | 19 | 1.6 | 4.8 | 0.00 | 1.04 | 0.00 | 94 | 1010.9 |
| 20260903084516 | 18 | 30 | 0.0 | 1.6 | 0.00 | 1.04 | 0.00 | 94 | 1010.9 |
| 20260903083012 | 19 | 30 | 1.6 | 4.8 | 0.00 | 1.04 | 0.00 | 93 | 1011.1 |
| 20260903081529 | 19 | 30 | 1.6 | 4.8 | 0.00 | 1.04 | 0.00 | 93 | 1011.0 |
| 20260903080009 | 20 | 323 | 0.0 | 1.6 | 0.00 | 1.04 | 0.00 | 94 | 1011.1 |
| 20260903074509 | 20 | 323 | 0.0 | 1.6 | 0.00 | 1.04 | 0.00 | 93 | 1011.0 |
| 20260903073009 | 20 | 14 | 0.0 | 3.2 | 0.00 | 1.04 | 0.00 | 93 | 1010.9 |
| 20260903071512 | 20 | 14 | 0.0 | 1.6 | 0.00 | 1.04 | 0.00 | 93 | 1010.8 |
| 20260903070006 | 20 | 14 | 0.0 | 1.6 | 0.00 | 1.04 | 0.00 | 93 | 1010.8 |
| 20260903064505 | 20 | 14 | 0.0 | 3.2 | 0.00 | 1.04 | 0.00 | 93 | 1010.8 |
| 20260903063004 | 20 | 14 | 0.0 | 0.0 | 0.00 | 1.04 | 0.00 | 93 | 1011.0 |
| 20260903061504 | 20 | 14 | 0.0 | 0.0 | 0.00 | 1.04 | 0.00 | 93 | 1011.3 |
| 20260903054558 | 20 | 256 | 0.0 | 0.0 | 0.00 | 1.04 | 0.00 | 93 | 1011.3 |
| 20260903053058 | 20 | 256 | 0.0 | 0.0 | 0.00 | 1.04 | 0.00 | 93 | 1011.3 |
| 20260903051555 | 20 | 256 | 0.0 | 0.0 | 0.00 | 1.04 | 0.00 | 93 | 1010.9 |
| 20260903050051 | 20 | 256 | 0.0 | 4.8 | 0.00 | 1.04 | 0.00 | 93 | 1010.7 |
| 20260903044553 | 20 | 236 | 0.0 | 0.0 | 0.00 | 1.04 | 0.00 | 93 | 1010.3 |
| 20260903043049 | 20 | 236 | 0.0 | 0.0 | 0.00 | 1.04 | 0.00 | 93 | 1010.3 |
| 20260903041547 | 20 | 231 | 0.0 | 4.8 | 0.00 | 1.04 | 0.00 | 93 | 1010.4 |
| 20260903040044 | 20 | 245 | 1.6 | 4.8 | 0.00 | 1.04 | 0.00 | 93 | 1010.4 |
| 20260903034542 | 20 | 274 | 0.0 | 0.0 | 0.00 | 1.04 | 1.04 | 93 | 1010.1 |
| 20260903033042 | 20 | 275 | 0.0 | 0.0 | 0.00 | 1.04 | 1.04 | 93 | 1009.9 |
| 20260903031543 | 20 | 274 | 0.0 | 0.0 | 0.00 | 1.04 | 1.04 | 93 | 1009.7 |
| 20260903030041 | 20 | 274 | 1.6 | 6.4 | 0.00 | 1.04 | 1.04 | 93 | 1009.6 |
| 20260903024541 | 20 | 273 | 0.0 | 0.0 | 0.00 | 1.04 | 1.04 | 92 | 1009.9 |
| 20260903023056 | 20 | 273 | 0.0 | 0.0 | 0.00 | 1.04 | 1.04 | 92 | 1010.4 |
| 20260903021545 | 20 | 273 | 0.0 | 0.0 | 0.00 | 1.04 | 1.04 | 92 | 1010.4 |
| 20260903020037 | 20 | 273 | 0.0 | 0.0 | 0.00 | 1.04 | 1.04 | 92 | 1010.4 |
| 20260903014536 | 20 | 273 | 0.0 | 0.0 | 0.00 | 1.04 | 1.04 | 92 | 1010.2 |
| 20260903013039 | 20 | 273 | 0.0 | 0.0 | 0.03 | 1.04 | 1.04 | 92 | 1010.3 |
| 20260903011535 | 21 | 273 | 0.0 | 0.0 | 0.03 | 1.04 | 1.04 | 92 | 1010.3 |
| 20260903010034 | 21 | 273 | 0.0 | 3.2 | 0.03 | 1.04 | 1.04 | 92 | 1010.2 |
| 20260903004534 | 21 | 273 | 0.0 | 3.2 | 0.15 | 1.04 | 1.04 | 92 | 1010.0 |
| 20260903003034 | 21 | 269 | 1.6 | 3.2 | 0.30 | 1.02 | 1.02 | 91 | 1010.0 |
| 20260903001534 | 21 | 213 | 0.0 | 9.7 | 0.30 | 1.02 | 1.02 | 91 | 1009.7 |
| 20260903000031 | 21 | 278 | 0.0 | 4.8 | 0.30 | 1.02 | 1.02 | 91 | 1009.8 |
| 20260902234529 | 22 | 186 | 6.4 | 11.3 | 0.13 | 0.84 | 0.84 | 91 | 1010.5 |
| 20260902233026 | 22 | 223 | 0.0 | 3.2 | 0.00 | 0.71 | 0.71 | 91 | 1009.6 |
| 20260902231530 | 22 | 223 | 0.0 | 3.2 | 0.00 | 0.71 | 0.71 | 90 | 1009.6 |
| 20260902230016 | 21 | 225 | 1.6 | 8.0 | 0.00 | 0.71 | 0.71 | 91 | 1010.4 |
| 20260902224514 | 21 | 165 | 4.8 | 12.9 | 0.03 | 0.71 | 0.71 | 91 | 1010.2 |
| 20260902223012 | 21 | 165 | 8.0 | 22.5 | 0.13 | 0.71 | 0.71 | 91 | 1010.1 |
| 20260902221517 | 21 | 13 | 0.0 | 1.6 | 0.13 | 0.71 | 0.71 | 91 | 1009.4 |
| 20260902220010 | 21 | 19 | 1.6 | 6.4 | 0.13 | 0.71 | 0.71 | 90 | 1009.3 |
| 20260902214512 | 21 | 214 | 3.2 | 11.3 | 0.10 | 0.69 | 0.69 | 89 | 1009.8 |
| 20260902213008 | 21 | 355 | 0.0 | 6.4 | 0.00 | 0.58 | 0.58 | 90 | 1009.7 |
| 20260902211506 | 21 | 327 | 1.6 | 6.4 | 0.58 | 0.58 | 0.58 | 90 | 1009.7 |
| 20260902210004 | 20 | 260 | 1.6 | 4.8 | 0.58 | 0.58 | 0.58 | 90 | 1009.6 |
| 20260902204600 | 20 | 317 | 1.6 | 8.0 | 0.58 | 0.58 | 0.58 | 89 | 1009.6 |
| 20260902203104 | 19 | 338 | 1.6 | 14.5 | 0.58 | 0.58 | 0.58 | 89 | 1009.9 |
| 20260902200021 | 29 | 281 | 8.0 | 16.1 | 0.00 | 0.00 | 0.00 | 74 | 1010.3 |
| 20260902194523 | 30 | 252 | 3.2 | 12.9 | 0.00 | 0.00 | 0.00 | 72 | 1009.5 |
| 20260902193015 | 31 | 274 | 4.8 | 16.1 | 0.00 | 0.00 | 0.00 | 71 | 1009.5 |
| 20260902191518 | 30 | 270 | 1.6 | 14.5 | 0.00 | 0.00 | 0.00 | 72 | 1009.7 |
| 20260902190012 | 30 | 267 | 1.6 | 14.5 | 0.00 | 0.00 | 0.00 | 72 | 1009.8 |
| 20260902184512 | 30 | 195 | 1.6 | 14.5 | 0.00 | 0.00 | 0.00 | 71 | 1009.8 |
| 20260902183010 | 30 | 190 | 1.6 | 8.0 | 0.00 | 0.00 | 0.00 | 69 | 1009.9 |
| 20260902181611 | 30 | 259 | 4.8 | 14.5 | 0.00 | 0.00 | 0.00 | 69 | 1010.0 |
| 20260902180008 | 30 | 199 | 4.8 | 12.9 | 0.00 | 0.00 | 0.00 | 69 | 1009.9 |
| 20260902174507 | 30 | 252 | 4.8 | 12.9 | 0.00 | 0.00 | 0.00 | 69 | 1009.9 |
| 20260902173003 | 30 | 196 | 1.6 | 16.1 | 0.00 | 0.00 | 0.00 | 72 | 1010.4 |
| 20260902171502 | 30 | 205 | 3.2 | 12.9 | 0.00 | 0.00 | 0.00 | 68 | 1010.8 |
| 20260902170059 | 30 | 144 | 4.8 | 12.9 | 0.00 | 0.00 | 0.00 | 71 | 1011.0 |
| 20260902164559 | 29 | 288 | 1.6 | 9.7 | 0.00 | 0.00 | 0.00 | 72 | 1011.5 |
| 20260902163055 | 28 | 276 | 6.4 | 14.5 | 0.00 | 0.00 | 0.00 | 70 | 1011.7 |
| 20260902161557 | 29 | 215 | 4.8 | 12.9 | 0.00 | 0.00 | 0.00 | 71 | 1011.8 |
| 20260902160055 | 28 | 311 | 8.0 | 16.1 | 0.00 | 0.00 | 0.00 | 73 | 1011.9 |
| 20260902154604 | 28 | 299 | 4.8 | 16.1 | 0.00 | 0.00 | 0.00 | 76 | 1012.1 |
| 20260902153042 | 27 | 265 | 3.2 | 14.5 | 0.00 | 0.00 | 0.00 | 79 | 1012.0 |
| 20260902151540 | 27 | 276 | 3.2 | 12.9 | 0.00 | 0.00 | 0.00 | 78 | 1011.8 |
| 20260902150037 | 28 | 308 | 4.8 | 14.5 | 0.00 | 0.00 | 0.00 | 78 | 1011.5 |
| 20260902144534 | 27 | 260 | 3.2 | 12.9 | 0.00 | 0.00 | 0.00 | 79 | 1011.4 |